This is the latest recevied weather packets stored in our database for station/object WP3OF-2. If no packets are shown the sender has not sent any weather packets the latest 10 day(s).
| Time | Temp. | Humidity | Pressure | Rain* | Wind** | Luminosity | Snow |
|---|---|---|---|---|---|---|---|
| 1777382515 | 23.33° C | 88% | 1027.1 hPa | 0 mm | - | 637 W/m² | - |
| 1777382211 | 23.33° C | 88% | 1027.1 hPa | 0 mm | - | 476 W/m² | - |
| 1777381908 | 23.33° C | 88% | 1027.1 hPa | 0 mm | - | 362 W/m² | - |
| 1777381607 | 22.78° C | 88% | 1027.1 hPa | 0 mm | - | 491 W/m² | - |
| 1777381304 | 22.22° C | 89% | 1027.1 hPa | 0 mm | - | 408 W/m² | - |
| 1777381001 | 22.22° C | 90% | 1027.1 hPa | 0 mm | - | 243 W/m² | - |
| 1777380697 | 22.22° C | 89% | 1026.7 hPa | 0 mm | - | 229 W/m² | - |
| 1777380393 | 21.67° C | 91% | 1026.7 hPa | 0 mm | - | 239 W/m² | - |
| 1777380090 | 21.67° C | 89% | 1027.1 hPa | 0 mm | - | 216 W/m² | - |
| 1777379786 | 21.67° C | 90% | 1026.3 hPa | 0 mm | - | 232 W/m² | - |
| 1777379481 | 21.67° C | 89% | 1026.7 hPa | 0 mm | - | 246 W/m² | - |
| 1777379176 | 21.67° C | 89% | 1026.7 hPa | 0 mm | - | 248 W/m² | - |
| 1777378872 | 21.67° C | 89% | 1026.3 hPa | 0 mm | - | 219 W/m² | - |
| 1777378569 | 21.67° C | 88% | 1026.7 hPa | 0 mm | - | 193 W/m² | - |
| 1777378264 | 21.11° C | 89% | 1026.7 hPa | 0 mm | - | 199 W/m² | - |
| 1777377963 | 21.11° C | 89% | 1026.7 hPa | 0 mm | - | 196 W/m² | - |
| 1777377662 | 20.56° C | 91% | 1026.7 hPa | 0 mm | - | 189 W/m² | - |
| 1777377358 | 20.56° C | 92% | 1026.3 hPa | 0 mm | - | 196 W/m² | - |
| 1777377055 | 20.56° C | 92% | 1026.7 hPa | 0 mm | - | 173 W/m² | - |
| 1777376752 | 20.56° C | 92% | 1026.7 hPa | 0 mm | - | 230 W/m² | - |
| 1777376449 | 20.56° C | 92% | 1026.3 hPa | 0 mm | - | 154 W/m² | - |
| 1777376144 | 20° C | 93% | 1026.3 hPa | 0 mm | - | 138 W/m² | - |
| 1777375844 | 20.56° C | 93% | 1026.3 hPa | 0 mm | - | 115 W/m² | - |
| 1777375539 | 20° C | 94% | 1026.3 hPa | 0 mm | - | 111 W/m² | - |
| 1777375235 | 20.56° C | 93% | 1026.3 hPa | 0 mm | - | 75 W/m² | - |
* Rain latest hour (hover to see other rain measurements)
** Current wind speed in m/s (hover to see current wind gust speed)